Regional Weather Roundup
Issued by NWS

Home | Current Version | Previous Version | Text Only | Print | Product List | Glossary Off
Versions: 1 2 3 4 5 6 7 8 9 10 11 12 13 14 15 16 17 18 19 20 21 22 23 24 25 26 27 28 29 30 31 32 33 34 35 36 37 38 39 40 41 42 43 44 45 46 47 48 49 50

000
ASUS44 KMEG 261810
RWRTN
TENNESSEE HOURLY STATE WEATHER ROUNDUP
NATIONAL WEATHER SERVICE MEMPHIS TN
1200 PM CST FRI DEC 26 2014

TNZ002-004-019-021-049-052-054-088>092-261900-
WEST TENNESSEE

CITY           SKY/WX    TMP DP  RH WIND       PRES   REMARKS
MEMPHIS INTL   CLOUDY    54  37  52 SE14G20   30.21F
NWS MEMPHIS      N/A     53 N/A N/A MISG        N/A
JACKSON        FAIR      52  37  56 VRB7      30.23F
DYERSBURG      FAIR      50  32  50 SE8       30.23F
UNION CITY     SUNNY     52  39  62 S13       30.20F
PARIS          SUNNY     52  39  62 SW9       30.22F
HUNTINGDON     FAIR      48  38  68 S7        30.23F
LEXINGTON      SUNNY     52  37  58 S7        30.22F
SAVANNAH       SUNNY     48  37  66 S8        30.25F
$$

TNZ008-025-027-028-033-062-065-066-261900-
NORTH MIDDLE TENNESSEE

CITY           SKY/WX    TMP DP  RH WIND       PRES   REMARKS
NASHVILLE      PTSUNNY   53  36  52 S12       30.26F
CLARKSVILLE    FAIR      54  38  54 S9        30.23F
SMYRNA         FAIR      53  39  59 S9        30.28F
COOKEVILLE     SUNNY     52  37  58 SW10      30.28F
CROSSVILLE     FAIR      50  32  50 SW7       30.29F
$$

TNZ061-075-076-078-094-096-097-261900-
SOUTH MIDDLE TENNESSEE

CITY           SKY/WX    TMP DP  RH WIND       PRES   REMARKS
FAYETTEVILLE   SUNNY     45  36  70 MISG      30.27F
TULLAHOMA      SUNNY     46  37  71 S5        30.29F
WINCHESTER     SUNNY     48  37  66 SE3       30.29F
MCMINNVILLE    SUNNY     48  37  66 CALM      30.29F
COLUMBIA       SUNNY     50  45  81 SE8       30.25F
SHELBYVILLE    SUNNY     50  39  66 S9        30.28F
$$

TNZ017-018-042-046-047-261900-
NORTHEAST TENNESSEE

CITY           SKY/WX    TMP DP  RH WIND       PRES   REMARKS
TRI CITIES     FAIR      50  33  52 CALM      30.30F
ELIZABETHTON   CLEAR     50  30  46 S6        30.28F
$$

TNZ012-013-036-069-073-074-261900-
CENTRAL EAST TENNESSEE

CITY           SKY/WX    TMP DP  RH WIND       PRES   REMARKS
KNOXVILLE      FAIR      46  35  65 VRB3      30.33F
OAK RIDGE      FAIR      48  36  63 CALM      30.34F
GATLINBURG     CLEAR     46  34  61 NW3       30.31F
MORRISTOWN     CLEAR     48  34  57 CALM      30.31F
$$

TNZ083-085-099-261900-
SOUTHEAST TENNESSEE

CITY           SKY/WX    TMP DP  RH WIND       PRES   REMARKS
CHATTANOOGA    PTSUNNY   44  38  79 CALM      30.35F
$$

SKY/WX REPORTED AS FAIR MEANS FEW OR NO CLOUDS BELOW
12 THOUSAND FEET.




USA.gov is the U.S. government's official web portal to all federal, state and local government web resources and services.